Temperature
15 15 15 15 15 15 14 14 14 13 12 12 12 11 11 10 10 10 9 9 9 9 8 8 8 8 7 7 7 7 7 6 6 6 6 7 7 7 7 7 7 7 7
14 14 15 14 14 14 14 14 13 13 12 12 12 11 11 10 10 10 9 9 9 9 8 8 8 7 7 7 7 6 6 6 6 5 4 4 5 6 6 6 6 6 6
14 14 14 14 14 14 14 14 13 13 12 12 12 11 11 10 10 10 9 9 9 8 8 8 7 7 7 7 6 6 6 6 6 5 4 3 4 4 4 4 5 5 5
14 14 14 14 14 14 13 13 13 13 12 12 12 11 11 11 10 10 9 9 8 8 8 7 7 7 6 6 6 6 5 5 5 5 4 4 3 2 2 3 3 4 4
14 14 14 13 13 13 13 13 13 12 12 12 11 11 11 10 10 9 9 8 8 8 7 7 7 6 6 6 6 5 5 5 5 4 4 4 3 3 2 1 2 3 3
13 13 13 13 13 12 12 12 12 12 12 12 11 11 11 10 9 9 9 8 8 7 7 7 6 6 6 6 5 5 5 5 4 4 4 3 3 2 2 1 1 1 2
13 13 13 12 12 12 12 12 12 12 11 11 11 11 10 10 9 9 8 8 7 7 7 6 6 6 5 5 5 5 4 4 4 4 3 3 2 2 1 1 0 -0 0
13 13 13 13 12 12 12 12 12 11 11 11 10 10 10 9 9 8 8 7 7 6 6 6 5 5 5 5 4 4 4 4 3 3 3 2 2 2 1 0 -0 -1 -1
13 13 13 13 12 12 12 12 11 11 11 10 10 10 9 9 8 8 7 7 6 6 6 5 5 5 5 4 4 4 4 3 3 3 2 2 2 1 1 0 -1 -2 -3
13 13 13 13 12 12 12 11 11 11 10 10 10 9 9 8 8 7 7 6 6 5 5 5 5 5 4 4 4 4 3 3 3 2 2 1 1 0 0 -0 -1 -2 -3
13 13 13 13 12 12 11 11 10 10 10 9 9 9 8 8 7 7 6 6 5 5 5 5 4 4 4 4 3 3 2 2 2 2 1 1 0 -0 -1 -1 -2 -2 -3
13 13 13 12 12 11 11 10 10 10 9 9 8 8 7 7 7 6 6 5 5 5 4 4 4 4 3 3 2 2 2 1 1 1 0 -0 -1 -1 -2 -2 -3 -3 -3
13 13 13 12 12 11 10 10 9 9 9 8 8 7 7 7 6 6 5 5 4 4 4 4 3 3 3 2 2 1 1 1 0 -0 -1 -1 -2 -2 -3 -3 -3 -4 -4
13 13 12 12 11 11 10 9 9 9 8 8 7 7 6 6 5 5 5 4 4 4 3 3 3 2 2 2 1 1 0 -0 -1 -1 -2 -2 -3 -3 -3 -4 -4 -4 -5
13 13 12 11 11 10 9 9 9 8 8 7 7 6 6 5 5 5 4 4 3 3 3 2 2 2 1 1 0 -0 -1 -1 -2 -2 -2 -3 -3 -4 -4 -5 -5 -5 -5
13 12 12 11 10 10 9 9 8 8 7 7 6 6 5 5 4 4 3 3 3 2 2 2 1 1 1 0 -0 -1 -2 -2 -3 -3 -3 -4 -4 -4 -5 -5 -5 -5 -5
13 12 11 10 10 9 9 8 8 7 6 6 6 5 5 4 4 3 3 2 2 2 1 1 1 0 0 -0 -1 -2 -3 -3 -3 -4 -4 -4 -5 -5 -5 -5 -5 -5 -5
12 11 10 10 9 9 8 8 7 6 6 5 5 5 4 4 3 3 2 2 1 1 1 1 0 -0 -0 -1 -2 -2 -3 -3 -4 -4 -5 -5 -5 -5 -6 -5 -5 -5 -5
12 11 10 9 9 8 7 7 6 6 5 5 4 4 3 3 2 2 2 1 1 1 0 -0 -1 -1 -1 -1 -2 -3 -4 -4 -4 -4 -5 -5 -6 -6 -6 -6 -5 -5 -5
10 9 9 8 8 7 7 6 6 5 5 4 4 3 3 2 2 1 1 1 0 -0 -0 -1 -1 -1 -2 -2 -3 -4 -4 -5 -5 -5 -5 -6 -6 -6 -6 -6 -6 -6 -6
9 9 8 7 7 6 6 5 5 4 4 3 3 3 2 2 1 1 1 0 -0 -1 -1 -1 -1 -2 -2 -2 -3 -4 -5 -5 -6 -6 -6 -6 -6 -6 -6 -6 -6 -6 -6
8 7 7 6 6 5 5 4 4 3 3 3 2 2 2 1 1 0 -0 -0 -1 -1 -1 -2 -2 -2 -2 -3 -4 -5 -6 -6 -6 -6 -6 -6 -6 -6 -6 -6 -6 -6 -6
7 6 6 6 5 4 4 4 3 3 2 2 2 1 1 1 0 -0 -1 -1 -1 -2 -2 -3 -3 -3 -3 -4 -5 -5 -6 -6 -6 -6 -7 -7 -6 -6 -6 -6 -6 -6 -7
6 6 5 5 4 4 3 3 2 2 2 2 1 1 0 0 -0 -1 -1 -2 -2 -3 -3 -4 -4 -4 -5 -5 -5 -6 -6 -6 -6 -6 -7 -7 -7 -7 -7 -7 -7 -7 -7
5 5 4 4 3 3 3 2 2 1 1 1 0 0 -0 -1 -1 -1 -2 -2 -3 -4 -4 -5 -5 -6 -6 -6 -6 -6 -6 -6 -7 -7 -7 -7 -7 -7 -7 -7 -7 -7 -7
4 4 3 3 3 3 2 2 1 1 0 0 -0 -0 -1 -1 -2 -2 -2 -3 -3 -4 -5 -5 -6 -6 -6 -6 -7 -7 -7 -7 -7 -7 -7 -8 -8 -8 -8 -8 -8 -8 -8
Wind_Speed
5 4 5 6 7 7 8 7 8 7 7 5 4 4 3 2 2 2 2 2 3 3 3 2 2 2 2 3 3 2 3 3 2 3 5 6 6 7 6 6 6 9 13
7 6 5 5 5 6 7 7 8 7 6 5 4 3 3 2 1 1 2 1 1 1 2 2 2 2 1 2 2 2 2 2 1 1 4 5 5 4 4 4 5 6 7
13 9 7 6 6 6 7 7 7 7 7 6 5 5 4 3 2 2 1 2 1 1 1 2 2 1 2 3 3 3 3 4 3 3 3 3 4 5 4 5 6 6 5
11 10 9 8 7 6 6 7 7 7 7 7 6 6 4 3 2 1 1 2 2 1 1 1 1 1 1 2 3 3 3 3 4 3 4 6 5 5 5 4 5 6 7
13 12 10 9 7 6 7 7 8 7 6 7 7 7 4 3 1 1 1 2 3 3 2 1 1 1 1 2 3 3 3 3 4 4 4 4 4 6 7 10 6 5 6
12 11 9 8 7 6 6 7 8 6 6 7 7 7 6 5 3 2 1 1 2 2 3 2 1 2 2 3 4 4 5 4 5 5 5 5 5 5 6 9 11 10 7
14 13 12 10 9 9 8 7 8 7 6 7 6 6 6 5 5 3 2 1 1 1 2 2 2 3 4 5 4 4 5 5 6 6 6 6 7 6 7 9 12 12 8
14 15 14 13 11 10 9 9 9 7 7 7 6 5 5 4 3 2 2 2 2 2 3 3 4 5 6 6 5 4 5 5 6 7 7 6 6 6 6 7 10 14 10
16 15 14 13 12 11 10 10 9 7 7 7 6 5 5 4 3 2 1 1 2 2 3 3 4 5 6 6 5 4 6 6 6 7 7 6 6 6 6 6 6 8 14
14 14 15 14 12 11 9 9 9 8 7 7 6 5 4 4 3 2 1 1 2 2 3 4 4 5 5 5 5 5 6 7 7 6 7 7 6 6 6 6 6 7 11
18 16 15 13 12 10 10 9 9 8 7 7 5 5 3 3 2 1 1 2 2 3 4 5 5 6 6 6 6 7 8 8 8 8 8 9 9 7 7 6 7 7 8
15 14 13 12 12 12 11 10 9 8 7 6 6 5 3 2 1 1 2 2 3 3 4 5 6 7 7 7 7 9 9 9 10 10 9 10 9 9 8 7 9 9 9
12 11 12 13 13 13 11 10 9 8 7 6 6 4 3 2 2 3 3 3 4 5 5 6 7 8 8 8 8 9 9 10 10 10 10 11 10 11 9 9 10 10 11
12 13 13 12 12 11 11 10 9 8 7 6 5 4 3 4 4 4 4 4 5 6 7 7 8 8 8 9 9 9 10 10 10 10 11 11 11 12 11 11 11 11 11
12 14 13 12 11 11 10 9 8 7 6 6 5 4 4 4 4 4 5 5 6 7 7 8 8 8 8 8 9 9 9 10 10 10 10 11 14 18 16 14 10 10 11
12 12 12 13 13 12 11 9 8 7 6 6 5 4 4 4 5 6 6 6 7 7 7 8 9 9 9 16 20 16 10 9 9 10 10 11 14 18 23 25 24 21 15
11 12 13 13 12 11 11 10 8 6 6 5 4 4 4 5 6 6 6 7 7 7 8 9 9 10 12 20 22 22 14 9 9 10 10 11 12 18 12 19 24 22 26
11 11 10 10 9 8 8 8 7 6 5 4 4 4 5 6 6 6 7 8 7 8 8 9 10 10 13 21 22 23 13 9 10 10 11 12 12 13 15 13 13 14 15
9 9 9 9 9 9 8 8 6 5 4 4 5 5 5 6 6 7 8 8 7 8 8 9 10 10 13 20 23 23 10 9 10 10 11 13 12 21 25 18 15 15 13
9 9 9 9 9 7 7 7 5 4 4 5 6 6 6 7 8 8 9 7 7 9 9 9 9 10 11 18 22 23 9 9 10 10 11 18 20 24 26 17 14 17 15
9 10 10 9 7 7 7 5 4 5 6 5 5 6 6 7 8 8 7 8 8 9 9 10 10 10 13 17 21 22 11 9 11 10 8 9 23 26 28 24 16 20 20
9 9 9 7 5 6 6 4 4 5 5 5 6 7 7 7 7 8 8 8 8 9 10 10 10 8 10 15 17 22 22 20 13 11 9 12 25 27 28 22 21 27 22
8 7 8 6 4 4 4 4 5 4 4 5 6 7 8 7 7 8 9 8 8 8 9 9 10 10 8 10 21 23 24 24 15 12 20 24 28 25 18 20 25 20 10
7 6 7 5 3 3 3 4 5 4 5 6 7 7 7 8 8 7 7 7 8 8 9 10 11 11 9 7 8 9 12 16 15 13 17 23 23 18 18 17 13 8 9
5 5 5 4 4 3 3 4 4 4 5 7 7 7 7 8 8 8 7 9 8 10 11 10 9 11 12 13 21 18 11 10 12 14 9 7 7 8 8 8 8 7 7
5 4 4 3 3 3 5 5 5 5 6 7 7 6 6 7 7 8 10 13 15 21 22 21 20 16 20 26 27 26 25 26 24 17 9 9 9 10 10 10 9 8 8
Wind_Direction
162 125 101 98 98 104 112 118 122 128 127 123 123 120 120 105 86 103 141 174 201 214 210 219 231 220 219 244 253 261 277 279 280 305 303 287 274 272 268 269 275 279 284
156 138 119 106 108 117 116 118 122 127 129 128 127 124 122 110 105 69 73 103 171 202 201 205 216 224 231 261 264 252 271 276 254 261 312 317 320 319 281 273 268 270 285
164 156 144 132 127 131 135 130 127 124 122 121 109 91 74 58 46 28 0 355 49 198 209 215 219 234 223 254 262 250 243 269 274 204 223 279 286 304 280 270 267 278 282
162 158 155 150 150 151 138 128 126 122 121 121 125 129 133 145 181 194 310 343 11 7 320 241 229 246 243 259 265 252 240 240 267 267 230 231 246 278 299 284 277 276 274
167 163 163 158 153 149 141 134 125 121 121 120 127 126 126 141 128 81 52 10 359 4 3 6 357 314 289 276 277 278 261 237 245 251 253 258 257 239 264 288 286 281 262
167 160 155 146 144 145 142 138 132 129 128 126 129 136 141 142 130 114 85 357 343 347 350 348 334 305 291 279 275 269 270 259 255 255 246 246 253 258 256 278 289 287 276
168 164 162 162 160 161 159 153 145 142 141 135 138 146 149 150 153 160 163 175 319 311 303 319 309 299 291 289 285 279 277 269 264 261 258 252 251 254 263 277 289 289 285
175 173 173 170 169 170 167 161 157 153 151 146 148 149 149 148 160 170 173 197 228 257 276 296 297 296 298 299 295 286 280 276 270 272 270 267 265 260 259 267 288 297 293
181 179 176 174 173 173 174 170 164 159 160 158 152 151 151 151 162 171 173 211 248 262 294 302 300 301 302 298 296 285 284 283 274 272 272 269 266 263 261 261 262 280 297
185 183 182 180 178 175 171 168 164 164 164 161 161 158 162 165 167 161 199 264 284 295 308 307 303 301 300 297 293 287 281 281 277 270 271 270 269 265 261 258 258 256 278
190 189 187 182 175 168 165 167 166 160 161 162 157 151 163 165 159 171 240 270 285 298 300 299 300 299 297 294 290 286 285 281 281 280 277 274 273 270 265 260 261 263 268
193 189 182 175 172 171 170 169 167 164 166 161 154 157 161 152 165 228 260 270 282 287 288 293 295 293 292 290 286 286 287 281 282 281 279 277 279 271 267 265 266 269 267
189 183 179 179 178 175 171 167 166 165 161 155 152 154 162 176 217 243 260 271 280 288 290 291 289 289 288 287 283 279 279 276 274 274 274 275 275 276 273 268 270 272 276
188 184 183 181 176 171 167 164 164 162 158 154 157 172 197 213 230 245 258 268 274 282 285 284 282 282 284 285 283 280 276 274 271 269 267 268 266 269 273 275 270 271 273
187 186 182 175 168 163 162 160 159 160 158 158 172 200 218 227 239 253 263 270 274 274 276 281 284 284 285 281 282 279 272 271 272 269 265 265 273 278 283 285 278 274 276
190 182 174 168 167 165 161 157 161 165 161 169 194 214 227 241 252 259 266 272 275 276 277 278 280 284 288 299 305 304 289 278 275 276 273 273 280 286 290 292 293 290 286
183 175 172 169 166 163 159 162 165 160 162 181 208 227 239 252 258 264 270 272 273 274 278 277 276 276 283 299 305 306 304 287 278 276 277 284 286 293 284 287 289 287 285
172 166 158 153 150 148 148 147 148 156 170 195 226 242 247 256 264 269 270 270 269 271 273 276 275 275 284 300 306 307 303 283 275 273 274 277 279 279 285 278 275 271 273
158 152 147 142 140 143 144 141 149 160 182 220 240 248 248 255 264 267 268 269 271 273 272 272 274 275 285 298 305 306 292 282 276 273 273 279 278 285 292 292 287 285 279
131 131 129 126 133 141 140 142 160 179 218 236 246 251 248 250 258 262 267 269 270 271 275 276 274 274 278 292 302 304 292 285 283 277 272 283 288 292 295 292 287 289 288
126 128 127 131 140 141 137 149 176 219 237 246 253 258 256 255 259 264 267 272 276 278 278 280 279 275 279 292 299 303 299 287 287 287 282 278 293 295 295 295 290 290 293
123 126 126 129 135 139 143 169 220 240 251 256 261 264 265 267 270 268 274 275 277 281 283 284 285 277 278 289 296 301 301 301 295 292 287 286 295 296 297 299 296 298 302
131 128 132 133 138 151 160 199 237 250 257 263 266 268 272 271 271 271 277 282 280 281 286 287 290 290 277 280 296 301 302 301 298 290 294 298 300 303 301 297 298 301 299
133 131 134 144 170 194 203 220 246 256 260 268 273 274 276 279 278 274 273 277 279 281 285 288 290 292 289 279 279 279 289 295 295 292 293 298 300 299 296 296 296 289 280
135 139 150 171 206 228 246 252 257 263 268 271 273 276 274 275 280 277 270 276 266 272 286 286 285 293 296 293 300 303 300 297 291 300 295 293 295 292 288 285 282 279 281
139 145 163 192 227 245 262 269 267 259 261 270 273 273 275 276 277 283 289 283 284 291 293 294 294 294 295 301 304 306 306 307 306 307 300 299 295 293 293 293 291 287 283
Height
1512 1513 1513 1514 1516 1517 1519 1522 1524 1526 1529 1531 1533 1535 1536 1538 1538 1539 1539 1539 1539 1539 1539 1538 1538 1538 1537 1536 1535 1534 1533 1531 1530 1527 1523 1521 1520 1518 1518 1518 1517 1516 1515
1509 1510 1512 1513 1515 1517 1519 1521 1523 1525 1527 1530 1532 1534 1535 1536 1536 1537 1537 1537 1536 1536 1536 1535 1534 1534 1533 1532 1531 1530 1528 1527 1526 1524 1520 1515 1513 1511 1512 1512 1511 1510 1510
1504 1507 1510 1512 1514 1516 1518 1520 1522 1524 1526 1529 1531 1532 1533 1534 1535 1535 1535 1534 1534 1533 1533 1532 1531 1531 1530 1529 1528 1527 1525 1523 1523 1522 1520 1516 1510 1507 1503 1503 1504 1504 1503
1502 1505 1508 1510 1513 1515 1518 1520 1522 1524 1526 1528 1529 1531 1532 1532 1533 1533 1533 1532 1532 1531 1530 1529 1529 1528 1527 1525 1524 1523 1522 1520 1518 1518 1516 1515 1511 1507 1499 1497 1497 1497 1496
1499 1503 1506 1509 1512 1515 1517 1519 1521 1523 1525 1527 1528 1530 1530 1531 1531 1531 1531 1530 1530 1529 1528 1527 1526 1525 1524 1522 1521 1520 1518 1516 1514 1513 1511 1509 1507 1504 1499 1491 1488 1487 1487
1497 1501 1505 1508 1511 1514 1517 1519 1521 1522 1524 1526 1527 1528 1529 1529 1529 1529 1528 1528 1527 1526 1525 1524 1523 1522 1520 1519 1517 1515 1514 1512 1510 1508 1506 1504 1501 1498 1494 1487 1481 1478 1477
1494 1498 1502 1505 1509 1512 1515 1518 1520 1521 1523 1525 1526 1527 1527 1527 1527 1527 1526 1525 1525 1524 1523 1521 1520 1518 1517 1515 1513 1511 1509 1507 1504 1502 1500 1497 1495 1492 1489 1483 1476 1470 1467
1492 1495 1499 1503 1507 1510 1513 1516 1518 1520 1522 1523 1524 1525 1525 1525 1525 1524 1524 1523 1522 1521 1519 1518 1516 1514 1512 1510 1508 1506 1503 1501 1498 1496 1493 1490 1488 1485 1482 1478 1472 1462 1457
1489 1493 1497 1501 1505 1508 1511 1514 1517 1518 1520 1521 1522 1523 1523 1523 1522 1522 1521 1520 1519 1517 1516 1514 1512 1510 1508 1505 1502 1500 1497 1494 1492 1489 1486 1483 1480 1478 1475 1471 1468 1462 1450
1486 1490 1494 1498 1502 1506 1509 1512 1515 1516 1518 1519 1520 1520 1521 1520 1520 1519 1518 1517 1515 1514 1512 1510 1508 1505 1502 1500 1497 1493 1491 1487 1485 1482 1478 1475 1472 1469 1466 1463 1460 1456 1449
1482 1486 1490 1495 1499 1503 1506 1509 1511 1513 1515 1516 1517 1518 1518 1517 1517 1516 1514 1513 1512 1510 1507 1505 1502 1500 1497 1494 1490 1487 1484 1480 1477 1474 1471 1467 1464 1461 1458 1454 1451 1447 1442
1479 1483 1487 1491 1495 1499 1502 1505 1508 1510 1512 1513 1514 1514 1514 1514 1513 1512 1511 1509 1507 1505 1503 1500 1497 1494 1491 1488 1484 1480 1477 1474 1470 1467 1463 1459 1456 1452 1449 1445 1441 1438 1434
1477 1480 1484 1487 1490 1494 1498 1501 1504 1507 1509 1510 1511 1511 1511 1510 1510 1509 1507 1505 1503 1501 1498 1495 1492 1489 1485 1481 1478 1474 1470 1466 1463 1459 1455 1452 1448 1444 1440 1436 1432 1428 1425
1473 1476 1479 1482 1486 1490 1494 1498 1501 1504 1505 1506 1507 1507 1507 1507 1506 1504 1503 1501 1498 1496 1493 1490 1486 1483 1479 1475 1471 1467 1462 1459 1455 1451 1448 1444 1440 1435 1431 1427 1423 1420 1416
1469 1471 1474 1478 1482 1487 1491 1495 1498 1500 1502 1503 1503 1504 1503 1502 1501 1500 1498 1496 1493 1490 1487 1484 1480 1477 1473 1468 1464 1459 1455 1451 1446 1443 1439 1436 1432 1427 1424 1421 1416 1413 1409
1464 1467 1470 1474 1478 1483 1487 1491 1494 1497 1498 1499 1499 1499 1499 1498 1497 1495 1493 1490 1488 1485 1481 1478 1474 1470 1466 1462 1457 1453 1447 1443 1439 1434 1430 1427 1423 1419 1415 1412 1409 1406 1402
1460 1463 1466 1470 1475 1480 1485 1488 1491 1493 1494 1495 1495 1495 1494 1493 1491 1489 1487 1484 1481 1478 1475 1471 1467 1463 1459 1454 1449 1445 1440 1435 1430 1426 1421 1417 1414 1411 1406 1402 1399 1396 1394
1458 1461 1465 1469 1474 1479 1483 1486 1488 1490 1490 1491 1491 1490 1489 1488 1486 1484 1481 1478 1475 1471 1468 1464 1460 1455 1451 1447 1442 1437 1432 1426 1422 1418 1413 1409 1404 1401 1397 1393 1388 1385 1383
1456 1460 1464 1468 1473 1477 1480 1483 1485 1486 1486 1487 1486 1485 1484 1482 1480 1477 1474 1471 1468 1464 1460 1456 1452 1447 1443 1439 1434 1428 1422 1417 1413 1409 1405 1401 1396 1393 1390 1386 1380 1375 1372
1456 1460 1464 1468 1472 1475 1478 1480 1481 1482 1482 1482 1481 1480 1479 1476 1474 1471 1468 1464 1460 1456 1452 1448 1444 1439 1434 1430 1425 1420 1414 1408 1403 1399 1396 1393 1389 1385 1382 1378 1372 1366 1362
1456 1460 1463 1467 1470 1473 1475 1476 1477 1478 1478 1477 1476 1475 1473 1470 1467 1464 1461 1457 1452 1448 1444 1439 1435 1431 1426 1421 1417 1412 1407 1402 1396 1391 1387 1383 1380 1376 1373 1369 1364 1359 1355
1456 1460 1463 1466 1469 1471 1472 1473 1474 1474 1473 1472 1470 1469 1466 1464 1461 1457 1453 1449 1445 1439 1434 1429 1424 1421 1417 1413 1408 1404 1400 1395 1389 1383 1378 1374 1371 1367 1363 1359 1355 1351 1347
1456 1459 1462 1464 1466 1468 1469 1469 1470 1469 1468 1466 1464 1462 1459 1457 1453 1449 1445 1441 1436 1431 1426 1421 1415 1410 1407 1403 1400 1395 1390 1386 1381 1376 1371 1367 1362 1358 1353 1350 1346 1342 1338
1456 1458 1461 1462 1464 1465 1465 1465 1465 1464 1462 1460 1458 1455 1452 1449 1445 1442 1437 1432 1428 1423 1418 1412 1407 1401 1397 1393 1389 1385 1381 1377 1372 1367 1362 1358 1353 1349 1345 1341 1337 1334 1331
1455 1457 1459 1460 1461 1462 1461 1461 1460 1458 1456 1453 1451 1448 1444 1441 1436 1433 1429 1424 1420 1416 1411 1405 1400 1395 1388 1385 1383 1379 1373 1369 1364 1359 1353 1349 1344 1340 1336 1332 1329 1326 1323
1453 1455 1456 1457 1457 1457 1457 1456 1454 1452 1449 1446 1443 1440 1436 1432 1428 1423 1418 1415 1412 1407 1403 1398 1394 1387 1383 1377 1374 1370 1365 1361 1356 1352 1345 1341 1337 1332 1328 1325 1322 1319 1316